• In Germany
  • List of Countries
  • For 7 days
  • Water Temperature
  • Satellite Maps
  • Weather Map
  • Weather Widgets
  • user-avatar
    Login

    Hourly Weather Lowech

    Today, 26 September, Tuesday

    Time Temperature Precipitation Wind Pressure Humidity
    00:00 +16°C° 0 mm 2 mps 739 mmHg 71%
    01:00 +15°C° 0 mm 2 mps 739 mmHg 74%
    02:00 +15°C° 0 mm 1 mps 739 mmHg 78%
    03:00 +15°C° 0 mm 1 mps 739 mmHg 80%
    04:00 +14°C° 0 mm 1 mps 739 mmHg 82%
    05:00 +14°C° 0 mm 1 mps 739 mmHg 84%
    06:00 +15°C° 0 mm 1 mps 739 mmHg 81%
    07:00 +15°C° 0 mm 2 mps 739 mmHg 78%
    08:00 +16°C° 0 mm 2 mps 739 mmHg 75%
    09:00 +17°C° 0 mm 2 mps 739 mmHg 71%
    10:00 +18°C° 0 mm 2 mps 739 mmHg 68%
    11:00 +19°C° 0 mm 3 mps 739 mmHg 65%
    12:00 +19°C° 0 mm 3 mps 739 mmHg 64%
    13:00 +20°C° 0 mm 3 mps 739 mmHg 63%
    14:00 +20°C° 0 mm 4 mps 739 mmHg 61%
    15:00 +20°C° 0.5 mm 3 mps 739 mmHg 67%
    16:00 +19°C° 0.5 mm 3 mps 739 mmHg 72%
    17:00 +18°C° 0.5 mm 3 mps 739 mmHg 77%
    18:00 +18°C° 0.8 mm 3 mps 739 mmHg 79%
    19:00 +17°C° 0.8 mm 4 mps 739 mmHg 81%
    20:00 +17°C° 0.8 mm 4 mps 740 mmHg 82%
    21:00 +17°C° 0.5 mm 4 mps 740 mmHg 82%
    22:00 +15°C° 0.5 mm 4 mps 740 mmHg 81%
    23:00 +15°C° 0.5 mm 4 mps 740 mmHg 81%

    Tomorrow, 27 September, Wednesday

    Time Temperature Precipitation Wind Pressure Humidity
    00:00 +14°C° 0.3 mm 3 mps 740 mmHg 80%
    01:00 +14°C° 0.3 mm 3 mps 741 mmHg 79%
    02:00 +14°C° 0.3 mm 3 mps 741 mmHg 78%
    03:00 +14°C° 0.2 mm 2 mps 741 mmHg 77%
    04:00 +14°C° 0.2 mm 2 mps 741 mmHg 77%
    05:00 +14°C° 0.2 mm 2 mps 741 mmHg 76%
    06:00 +14°C° 0.2 mm 2 mps 741 mmHg 75%
    07:00 +14°C° 0.2 mm 2 mps 742 mmHg 73%
    08:00 +13°C° 0.2 mm 3 mps 742 mmHg 72%
    09:00 +14°C° 0.1 mm 3 mps 743 mmHg 70%
    10:00 +14°C° 0.1 mm 3 mps 743 mmHg 67%
    11:00 +16°C° 0.1 mm 3 mps 743 mmHg 65%
    12:00 +17°C° 0 mm 3 mps 743 mmHg 64%
    13:00 +17°C° 0 mm 3 mps 743 mmHg 62%
    14:00 +18°C° 0 mm 3 mps 743 mmHg 61%
    15:00 +17°C° 0 mm 3 mps 743 mmHg 62%
    16:00 +17°C° 0 mm 3 mps 743 mmHg 63%
    17:00 +17°C° 0 mm 3 mps 743 mmHg 64%
    18:00 +16°C° 0 mm 2 mps 744 mmHg 67%
    19:00 +15°C° 0 mm 2 mps 744 mmHg 71%
    20:00 +15°C° 0 mm 1 mps 744 mmHg 74%
    21:00 +14°C° 0 mm 1 mps 744 mmHg 74%
    22:00 +14°C° 0 mm 1 mps 745 mmHg 75%
    23:00 +14°C° 0 mm 2 mps 745 mmHg 75%

    Day after tomorrow, 28 September, Thursday

    Time Temperature Precipitation Wind Pressure Humidity
    00:00 +13°C° 0 mm 2 mps 745 mmHg 77%
    01:00 +12°C° 0 mm 2 mps 745 mmHg 80%
    02:00 +12°C° 0 mm 2 mps 745 mmHg 82%
    03:00 +10°C° 0 mm 2 mps 745 mmHg 83%
    04:00 +11°C° 0 mm 1 mps 745 mmHg 83%
    05:00 +10°C° 0 mm 1 mps 745 mmHg 84%
    06:00 +10°C° 0 mm 2 mps 745 mmHg 79%
    07:00 +12°C° 0 mm 2 mps 745 mmHg 73%
    08:00 +12°C° 0 mm 2 mps 745 mmHg 68%
    09:00 +13°C° 0 mm 3 mps 745 mmHg 64%
    10:00 +14°C° 0 mm 3 mps 745 mmHg 59%
    11:00 +15°C° 0 mm 4 mps 745 mmHg 55%
    12:00 +17°C° 0 mm 4 mps 745 mmHg 53%
    13:00 +17°C° 0 mm 4 mps 745 mmHg 51%
    14:00 +18°C° 0 mm 4 mps 745 mmHg 49%
    15:00 +17°C° 0 mm 4 mps 745 mmHg 50%
    16:00 +17°C° 0 mm 4 mps 744 mmHg 51%
    17:00 +16°C° 0 mm 3 mps 744 mmHg 51%
    18:00 +14°C° 0 mm 3 mps 745 mmHg 55%
    19:00 +14°C° 0 mm 2 mps 745 mmHg 59%
    20:00 +13°C° 0 mm 2 mps 745 mmHg 63%
    21:00 +12°C° 0 mm 2 mps 745 mmHg 66%
    22:00 +12°C° 0 mm 2 mps 745 mmHg 68%
    23:00 +10°C° 0 mm 2 mps 745 mmHg 71%

    29 September, Friday

    Time Temperature Precipitation Wind Pressure Humidity
    00:00 +10°C° 0 mm 2 mps 745 mmHg 74%
    01:00 +9°C° 0 mm 2 mps 745 mmHg 77%
    02:00 +8°C° 0 mm 2 mps 745 mmHg 80%
    03:00 +9°C° 0 mm 1 mps 745 mmHg 81%
    04:00 +9°C° 0 mm 1 mps 744 mmHg 81%
    05:00 +8°C° 0 mm 1 mps 744 mmHg 81%
    06:00 +9°C° 0 mm 1 mps 744 mmHg 76%
    07:00 +9°C° 0 mm 2 mps 745 mmHg 70%
    08:00 +10°C° 0 mm 2 mps 745 mmHg 65%
    09:00 +11°C° 0 mm 3 mps 745 mmHg 61%
    10:00 +12°C° 0 mm 3 mps 745 mmHg 57%
    11:00 +13°C° 0 mm 3 mps 744 mmHg 53%
    12:00 +14°C° 0 mm 3 mps 744 mmHg 51%
    13:00 +16°C° 0 mm 3 mps 744 mmHg 49%
    14:00 +15°C° 0 mm 4 mps 743 mmHg 47%
    15:00 +16°C° 0 mm 3 mps 743 mmHg 47%
    16:00 +16°C° 0 mm 3 mps 743 mmHg 48%
    17:00 +14°C° 0 mm 3 mps 743 mmHg 48%
    18:00 +14°C° 0 mm 2 mps 743 mmHg 53%
    19:00 +13°C° 0 mm 2 mps 743 mmHg 57%
    20:00 +11°C° 0 mm 1 mps 743 mmHg 62%
    21:00 +11°C° 0 mm 1 mps 743 mmHg 63%
    22:00 +10°C° 0 mm 1 mps 743 mmHg 64%
    23:00 +9°C° 0 mm 1 mps 743 mmHg 65%

    30 September, Saturday

    Time Temperature Precipitation Wind Pressure Humidity
    00:00 +9°C° 0 mm 1 mps 743 mmHg 66%
    01:00 +9°C° 0 mm 1 mps 743 mmHg 66%
    02:00 +8°C° 0 mm 1 mps 742 mmHg 67%
    03:00 +8°C° 0 mm 1 mps 742 mmHg 68%
    04:00 +7°C° 0 mm 1 mps 742 mmHg 69%
    05:00 +7°C° 0 mm 1 mps 742 mmHg 69%
    06:00 +8°C° 0 mm 1 mps 742 mmHg 64%
    07:00 +9°C° 0 mm 1 mps 742 mmHg 59%
    08:00 +10°C° 0 mm 1 mps 742 mmHg 54%
    09:00 +12°C° 0 mm 2 mps 742 mmHg 48%
    10:00 +13°C° 0 mm 2 mps 742 mmHg 42%
    11:00 +14°C° 0 mm 3 mps 741 mmHg 36%
    12:00 +16°C° 0 mm 3 mps 741 mmHg 34%
    13:00 +17°C° 0 mm 3 mps 740 mmHg 31%
    14:00 +17°C° 0 mm 3 mps 740 mmHg 29%
    15:00 +17°C° 0 mm 3 mps 740 mmHg 30%
    16:00 +17°C° 0 mm 2 mps 739 mmHg 31%
    17:00 +16°C° 0 mm 2 mps 739 mmHg 32%
    18:00 +14°C° 0 mm 2 mps 740 mmHg 35%
    19:00 +12°C° 0 mm 2 mps 740 mmHg 39%
    20:00 +10°C° 0 mm 1 mps 740 mmHg 43%
    21:00 +10°C° 0 mm 1 mps 740 mmHg 44%
    22:00 +9°C° 0 mm 1 mps 740 mmHg 45%
    23:00 +9°C° 0 mm 1 mps 740 mmHg 46%

    1 October, Sunday

    Time Temperature Precipitation Wind Pressure Humidity
    00:00 +9°C° 0 mm 1 mps 740 mmHg 47%
    01:00 +8°C° 0 mm 1 mps 740 mmHg 48%
    02:00 +8°C° 0 mm 1 mps 740 mmHg 49%
    03:00 +8°C° 0 mm 1 mps 740 mmHg 50%
    04:00 +7°C° 0 mm 1 mps 740 mmHg 51%
    05:00 +7°C° 0 mm 1 mps 740 mmHg 52%
    06:00 +8°C° 0 mm 1 mps 740 mmHg 49%
    07:00 +8°C° 0 mm 0 mps 740 mmHg 47%
    08:00 +10°C° 0 mm 0 mps 740 mmHg 44%
    09:00 +12°C° 0 mm 1 mps 740 mmHg 40%
    10:00 +14°C° 0 mm 1 mps 740 mmHg 35%
    11:00 +16°C° 0 mm 2 mps 740 mmHg 30%
    12:00 +17°C° 0 mm 2 mps 740 mmHg 29%
    13:00 +18°C° 0 mm 2 mps 739 mmHg 28%
    14:00 +18°C° 0 mm 2 mps 739 mmHg 26%
    15:00 +18°C° 0 mm 2 mps 739 mmHg 28%
    16:00 +17°C° 0 mm 2 mps 739 mmHg 30%
    17:00 +17°C° 0 mm 2 mps 739 mmHg 31%
    18:00 +15°C° 0 mm 1 mps 739 mmHg 35%
    19:00 +13°C° 0 mm 1 mps 739 mmHg 39%
    20:00 +11°C° 0 mm 1 mps 739 mmHg 42%
    21:00 +11°C° 0 mm 1 mps 740 mmHg 43%
    22:00 +10°C° 0 mm 1 mps 740 mmHg 44%
    23:00 +10°C° 0 mm 1 mps 740 mmHg 45%
    Show more